Meteo pe oră la Alness

Astăzi, 21 Ianuarie, Joi

Timp Temperatura Precipitaţii Vânt Presiune Umiditate
00:00 -1°C° 0 mm 4 m/s 722 mmHg 97%
01:00 0°C° 0.9 mm 4 m/s 722 mmHg 97%
02:00 0°C° 0.9 mm 4 m/s 721 mmHg 97%
03:00 0°C° 0.9 mm 4 m/s 720 mmHg 98%
04:00 0°C° 0.7 mm 5 m/s 720 mmHg 98%
05:00 -1°C° 0.7 mm 6 m/s 719 mmHg 98%
06:00 -1°C° 0 mm 6 m/s 719 mmHg 98%
07:00 -1°C° 1.3 mm 7 m/s 719 mmHg 98%
08:00 -1°C° 1.3 mm 8 m/s 719 mmHg 97%
09:00 -1°C° 1.3 mm 8 m/s 719 mmHg 97%
10:00 -1°C° 0.4 mm 8 m/s 719 mmHg 96%
11:00 -1°C° 0.4 mm 7 m/s 719 mmHg 95%
12:00 -1°C° 0.4 mm 7 m/s 720 mmHg 93%
13:00 -1°C° 0.1 mm 6 m/s 720 mmHg 93%
14:00 -1°C° 0.1 mm 6 m/s 720 mmHg 93%
15:00 -1°C° 0.1 mm 6 m/s 721 mmHg 93%
16:00 -1°C° 0.2 mm 6 m/s 721 mmHg 93%
17:00 -1°C° 0.2 mm 6 m/s 722 mmHg 93%
18:00 0°C° 0.2 mm 5 m/s 722 mmHg 93%
19:00 -1°C° 0.1 mm 5 m/s 723 mmHg 93%
20:00 -1°C° 0.1 mm 5 m/s 723 mmHg 93%
21:00 -1°C° 0.1 mm 5 m/s 723 mmHg 93%
22:00 -1°C° 0.2 mm 5 m/s 724 mmHg 93%
23:00 -1°C° 0.2 mm 5 m/s 724 mmHg 93%

Mâine, 22 Ianuarie, Vineri

Timp Temperatura Precipitaţii Vânt Presiune Umiditate
00:00 -1°C° 0.2 mm 5 m/s 725 mmHg 94%
01:00 -1°C° 0.3 mm 5 m/s 725 mmHg 93%
02:00 -1°C° 0.3 mm 5 m/s 726 mmHg 93%
03:00 -1°C° 0.3 mm 5 m/s 726 mmHg 93%
04:00 -2°C° 0.1 mm 5 m/s 727 mmHg 90%
05:00 -2°C° 0.1 mm 5 m/s 728 mmHg 87%
06:00 -2°C° 0.1 mm 5 m/s 728 mmHg 84%
07:00 -2°C° 0 mm 4 m/s 729 mmHg 85%
08:00 -3°C° 0 mm 4 m/s 729 mmHg 87%
09:00 -3°C° 0 mm 4 m/s 730 mmHg 88%
10:00 -2°C° 0 mm 4 m/s 730 mmHg 87%
11:00 -2°C° 0 mm 4 m/s 731 mmHg 87%
12:00 -1°C° 0 mm 4 m/s 731 mmHg 86%
13:00 -2°C° 0 mm 4 m/s 731 mmHg 86%
14:00 -2°C° 0 mm 4 m/s 731 mmHg 86%
15:00 -2°C° 0 mm 4 m/s 731 mmHg 86%
16:00 -3°C° 0 mm 4 m/s 732 mmHg 85%
17:00 -3°C° 0 mm 4 m/s 732 mmHg 85%
18:00 -4°C° 0 mm 4 m/s 732 mmHg 84%
19:00 -4°C° 0 mm 4 m/s 732 mmHg 85%
20:00 -4°C° 0 mm 4 m/s 733 mmHg 86%
21:00 -4°C° 0 mm 4 m/s 733 mmHg 87%
22:00 -4°C° 0 mm 4 m/s 733 mmHg 87%
23:00 -4°C° 0 mm 4 m/s 733 mmHg 86%

Poimâine, 23 Ianuarie, Sâmbătă

Timp Temperatura Precipitaţii Vânt Presiune Umiditate
00:00 -5°C° 0 mm 4 m/s 733 mmHg 85%
01:00 -5°C° 0 mm 4 m/s 733 mmHg 85%
02:00 -5°C° 0 mm 4 m/s 733 mmHg 84%
03:00 -5°C° 0 mm 4 m/s 733 mmHg 84%
04:00 -6°C° 0 mm 5 m/s 733 mmHg 84%
05:00 -6°C° 0 mm 5 m/s 733 mmHg 84%
06:00 -6°C° 0 mm 5 m/s 733 mmHg 84%
07:00 -6°C° 0 mm 5 m/s 734 mmHg 84%
08:00 -6°C° 0 mm 5 m/s 734 mmHg 84%
09:00 -6°C° 0 mm 5 m/s 734 mmHg 84%
10:00 -5°C° 0 mm 5 m/s 734 mmHg 84%
11:00 -4°C° 0 mm 5 m/s 734 mmHg 83%
12:00 -2°C° 0 mm 4 m/s 734 mmHg 82%
13:00 -2°C° 0 mm 4 m/s 734 mmHg 83%
14:00 -2°C° 0 mm 4 m/s 734 mmHg 83%
15:00 -2°C° 0 mm 4 m/s 733 mmHg 84%
16:00 -2°C° 0 mm 4 m/s 734 mmHg 84%
17:00 -3°C° 0 mm 4 m/s 734 mmHg 85%
18:00 -3°C° 0 mm 4 m/s 734 mmHg 85%
19:00 -4°C° 0 mm 4 m/s 734 mmHg 85%
20:00 -4°C° 0 mm 4 m/s 734 mmHg 86%
21:00 -5°C° 0 mm 4 m/s 734 mmHg 86%
22:00 -5°C° 0 mm 4 m/s 734 mmHg 87%
23:00 -5°C° 0 mm 4 m/s 734 mmHg 88%

24 Ianuarie, Duminică

Timp Temperatura Precipitaţii Vânt Presiune Umiditate
00:00 -5°C° 0 mm 4 m/s 734 mmHg 89%
01:00 -5°C° 0 mm 4 m/s 734 mmHg 89%
02:00 -5°C° 0 mm 4 m/s 734 mmHg 90%
03:00 -5°C° 0 mm 3 m/s 734 mmHg 90%
04:00 -5°C° 0 mm 3 m/s 734 mmHg 90%
05:00 -5°C° 0 mm 3 m/s 735 mmHg 90%
06:00 -5°C° 0 mm 3 m/s 735 mmHg 90%
07:00 -5°C° 0 mm 3 m/s 735 mmHg 90%
08:00 -5°C° 0 mm 3 m/s 735 mmHg 90%
09:00 -5°C° 0 mm 3 m/s 735 mmHg 90%
10:00 -4°C° 0 mm 3 m/s 736 mmHg 89%
11:00 -1°C° 0 mm 3 m/s 736 mmHg 88%
12:00 0°C° 0 mm 3 m/s 736 mmHg 87%
13:00 0°C° 0 mm 3 m/s 737 mmHg 87%
14:00 0°C° 0 mm 3 m/s 737 mmHg 87%
15:00 0°C° 0 mm 3 m/s 737 mmHg 88%
16:00 -1°C° 0 mm 3 m/s 738 mmHg 88%
17:00 -1°C° 0 mm 3 m/s 738 mmHg 89%
18:00 -2°C° 0 mm 4 m/s 738 mmHg 90%
19:00 -2°C° 0.2 mm 4 m/s 739 mmHg 91%
20:00 -2°C° 0.2 mm 4 m/s 739 mmHg 92%
21:00 -2°C° 0.2 mm 4 m/s 739 mmHg 93%
22:00 -2°C° 0.1 mm 4 m/s 740 mmHg 93%
23:00 -2°C° 0.1 mm 3 m/s 740 mmHg 93%

25 Ianuarie, Luni

Timp Temperatura Precipitaţii Vânt Presiune Umiditate
00:00 -2°C° 0.1 mm 3 m/s 740 mmHg 93%
01:00 -2°C° 0 mm 3 m/s 741 mmHg 93%
02:00 -2°C° 0 mm 3 m/s 741 mmHg 93%
03:00 -2°C° 0 mm 2 m/s 741 mmHg 93%
04:00 -2°C° 0 mm 3 m/s 742 mmHg 93%
05:00 -2°C° 0 mm 3 m/s 742 mmHg 93%
06:00 -2°C° 0 mm 3 m/s 742 mmHg 93%
07:00 -2°C° 0 mm 3 m/s 743 mmHg 93%
08:00 -2°C° 0 mm 3 m/s 743 mmHg 93%
09:00 -2°C° 0 mm 2 m/s 744 mmHg 93%
10:00 -1°C° 0 mm 2 m/s 744 mmHg 93%
11:00 +1°C° 0 mm 2 m/s 744 mmHg 93%
12:00 +2°C° 0 mm 2 m/s 745 mmHg 92%
13:00 +2°C° 0 mm 2 m/s 745 mmHg 92%
14:00 +2°C° 0 mm 2 m/s 746 mmHg 92%
15:00 +2°C° 0 mm 2 m/s 746 mmHg 92%
16:00 +1°C° 0 mm 2 m/s 746 mmHg 92%
17:00 -1°C° 0 mm 2 m/s 747 mmHg 91%
18:00 -2°C° 0 mm 2 m/s 747 mmHg 91%
19:00 -2°C° 0 mm 2 m/s 748 mmHg 90%
20:00 -3°C° 0 mm 2 m/s 748 mmHg 90%
21:00 -3°C° 0 mm 2 m/s 748 mmHg 89%
22:00 -3°C° 0 mm 2 m/s 749 mmHg 89%
23:00 -3°C° 0 mm 2 m/s 749 mmHg 88%

26 Ianuarie, Marţi

Timp Temperatura Precipitaţii Vânt Presiune Umiditate
00:00 -4°C° 0 mm 2 m/s 749 mmHg 87%
01:00 -4°C° 0 mm 2 m/s 749 mmHg 87%
02:00 -4°C° 0 mm 2 m/s 749 mmHg 86%
03:00 -4°C° 0 mm 2 m/s 749 mmHg 85%
04:00 -2°C° 0 mm 1 m/s 748 mmHg 85%
05:00 -2°C° 0 mm 1 m/s 748 mmHg 84%
06:00 -2°C° 0 mm 1 m/s 747 mmHg 84%
07:00 -1°C° 0 mm 1 m/s 747 mmHg 84%
08:00 -1°C° 0 mm 1 m/s 746 mmHg 85%
09:00 -1°C° 0 mm 1 m/s 746 mmHg 85%
10:00 0°C° 0 mm 1 m/s 745 mmHg 85%
11:00 -1°C° 0 mm 2 m/s 744 mmHg 85%
12:00 -1°C° 0 mm 2 m/s 744 mmHg 86%
13:00 -1°C° 0.4 mm 2 m/s 743 mmHg 89%
14:00 0°C° 0.4 mm 3 m/s 742 mmHg 92%
15:00 -1°C° 0.4 mm 4 m/s 741 mmHg 95%
16:00 0°C° 0.7 mm 3 m/s 741 mmHg 96%
17:00 0°C° 0.7 mm 3 m/s 741 mmHg 97%
18:00 +1°C° 0.7 mm 2 m/s 741 mmHg 98%
19:00 +1°C° 0.3 mm 2 m/s 741 mmHg 98%
20:00 +1°C° 0.3 mm 2 m/s 741 mmHg 98%
21:00 +2°C° 0.3 mm 1 m/s 742 mmHg 98%
22:00 +2°C° 0.3 mm 1 m/s 742 mmHg 98%
23:00 +2°C° 0.3 mm 1 m/s 742 mmHg 98%
Arată mai mult

Formular de consimțământ

Meteoprog și furnizorii noștri de servicii pot stoca și accesa date personale, precum cookies, identificatori de dispozitiv sau alte tehnologii similare pe dispozitivul dumneavoastră și procesa astfel de date pentru a personaliza conținutul și reclamele, dar și pentru a oferi caracteristici de social media și pentru a analiza traficul.

  • Stocarea și/sau accesarea informațiilor pe dispozitivul dumneavoastră

    Cookies, identificatori de dispozitiv sau alte informații pot fi stocate sau accesate pe dispozitiv în scopurile indicate mai sus.

  • Reclame și conținut personalizat, evaluarea reclamelor și a conținutului, informații despre audiențe și dezvoltarea produselor

    Reclamele și conținutul pot fi personalizate pe baza unui profil. Pot fi adăugate date suplimentare pentru a personaliza mai bine reclamele și conținutul. Performanța reclamelor și conținutului poate fi măsurată. Pot fi obținute informații despre utilizatorii care au văzut reclamele și conținutul. Aceste date pot fi utilizate pentru a dezvolta sau îmbunătăți experiența utilizatorilor, sistemele și software-ul.

Dând clic pe ‘Sunt de acord’, permiteți utilizarea cookie-urilor menționate, a identificatorilor de dispozitiv, balizelor web sau altor tehnologii similare. Setările pot fi modificate din browser-ul dispozitivului dumneavoastră.

În anumite scopuri, interesele legitime pot prima asupra consimțământului. Puteți citi mai multe informații în acest sens în Politica privind Confidențialitatea Datelor și Cookie.